�N����,����,�~����,�C��,���x,�C��,����,���ϕ���,�ő�u�ԕ���,�ő厞����,���˗�,�I�_���x,�n�����x,�ő啗���N��,DTYPE
"23/07/17","00:10",0.0,24.9,83.3,1008.1,341.3,1.6,3.6,341.3,0.00,21.9,25.2,"00:01:20",1
"23/07/17","00:20",0.0,24.8,84.4,1008.1,343.1,1.6,3.2,345.9,0.00,22.0,25.2,"00:16:32",1
"23/07/17","00:30",0.0,24.5,85.2,1008.3,342.8,1.6,3.1,335.7,0.00,21.9,25.2,"00:21:12",1
"23/07/17","00:40",0.0,24.5,85.8,1007.8,338.2,1.6,2.9,342.4,0.00,22.0,25.1,"00:32:40",1
"23/07/17","00:50",0.0,24.4,86.5,1007.8,339.9,1.5,2.8,343.6,0.00,22.0,25.2,"00:43:04",1
"23/07/17","01:00",0.0,24.3,87.0,1008.3,331.0,1.6,2.9,343.2,0.00,22.0,25.0,"00:52:56",1
"23/07/17","01:10",0.0,24.2,87.3,1008.1,321.5,1.6,2.2,327.9,0.00,22.0,25.2,"01:01:36",1
"23/07/17","01:20",0.0,24.2,87.5,1008.1,322.6,1.3,2.2,331.6,0.00,22.0,25.2,"01:10:16",1
"23/07/17","01:30",0.0,24.1,87.8,1008.3,287.2,1.0,1.6,321.7,0.00,22.0,25.1,"01:26:56",1
"23/07/17","01:40",0.0,24.0,88.0,1008.1,297.5,1.0,1.7,331.2,0.00,21.9,25.1,"01:38:40",1
"23/07/17","01:50",0.0,23.9,88.1,1008.1,304.5,0.8,1.9,327.6,0.00,21.8,25.0,"01:43:44",1
"23/07/17","02:00",0.0,23.8,88.4,1008.1,311.7,1.5,2.7,327.6,0.00,21.8,24.9,"01:50:02",1
"23/07/17","02:10",0.0,23.8,88.6,1007.6,309.9,1.7,2.8,312.5,0.00,21.8,24.6,"02:00:32",1
"23/07/17","02:20",0.0,23.7,88.7,1008.1,326.4,1.6,2.9,339.4,0.00,21.8,24.7,"02:12:48",1
"23/07/17","02:30",0.0,23.5,88.8,1007.6,323.8,0.7,1.8,338.7,0.00,21.6,24.8,"02:25:28",1
"23/07/17","02:40",0.0,23.6,89.0,1008.1,313.2,1.1,2.0,322.0,0.00,21.7,24.8,"02:36:00",1
"23/07/17","02:50",0.0,23.4,89.1,1007.8,309.6,0.8,2.0,333.9,0.00,21.5,24.8,"02:40:24",1
"23/07/17","03:00",0.0,23.1,89.3,1008.3,271.6,0.3,0.8,306.7,0.00,21.3,24.6,"02:50:08",1
"23/07/17","03:10",0.0,23.0,89.6,1008.3,276.3,0.8,1.4,321.6,0.00,21.2,24.8,"03:08:00",1
"23/07/17","03:20",0.0,22.7,89.7,1008.1,301.0,0.5,1.0,310.4,0.00,21.0,24.8,"03:16:40",1
"23/07/17","03:30",0.0,22.8,89.9,1008.3,317.6,1.0,1.2,322.5,0.00,21.1,24.6,"03:23:52",1
"23/07/17","03:40",0.0,22.8,90.2,1008.1,282.3,1.0,1.3,266.6,0.00,21.1,24.6,"03:39:04",1
"23/07/17","03:50",0.0,22.8,90.6,1008.3,280.2,1.1,2.1,321.4,0.00,21.2,24.6,"03:49:12",1
"23/07/17","04:00",0.0,22.8,90.7,1008.1,302.4,1.1,2.4,341.5,0.00,21.2,24.7,"03:50:32",1
"23/07/17","04:10",0.0,22.5,90.9,1007.8,317.5,1.0,1.7,322.9,0.00,21.0,24.5,"04:06:24",1
"23/07/17","04:20",0.0,22.6,91.2,1008.6,331.8,1.1,1.6,340.2,0.00,21.1,24.7,"04:10:24",1
"23/07/17","04:30",0.0,22.5,91.5,1008.6,321.2,1.3,1.6,316.2,0.00,21.1,24.5,"04:24:56",1
"23/07/17","04:40",0.0,22.6,91.9,1008.3,327.3,1.7,2.6,335.8,0.00,21.3,24.2,"04:34:48",1
"23/07/17","04:50",0.0,22.6,92.0,1008.6,293.1,1.2,2.4,322.7,0.00,21.3,24.6,"04:43:12",1
"23/07/17","05:00",0.0,22.6,92.1,1008.6,295.4,0.8,1.4,258.3,0.00,21.3,24.3,"04:51:52",1
"23/07/17","05:10",0.0,22.5,92.3,1008.8,305.9,0.7,1.6,320.5,0.00,21.2,24.5,"05:06:32",1
"23/07/17","05:20",0.0,22.5,92.4,1008.8,293.1,0.8,1.3,319.5,0.00,21.2,24.4,"05:17:36",1
"23/07/17","05:30",0.0,22.6,92.6,1009.0,286.0,1.0,1.3,263.9,0.00,21.4,24.3,"05:23:52",1
"23/07/17","05:40",0.0,22.7,92.7,1008.8,296.7,0.8,1.6,320.2,0.00,21.5,24.5,"05:39:12",1
"23/07/17","05:50",0.0,23.0,92.7,1009.0,303.4,1.0,1.8,309.3,0.00,21.8,24.1,"05:45:20",1
"23/07/17","06:00",0.0,23.4,92.8,1009.0,334.4,0.7,1.7,335.3,0.02,22.2,24.2,"05:52:00",1
"23/07/17","06:10",0.0,24.2,92.7,1008.8,337.4,0.7,1.6,342.1,0.03,23.0,24.2,"06:09:20",1
"23/07/17","06:20",0.0,25.3,92.4,1009.3,347.2,0.6,1.6,341.6,0.05,24.0,24.1,"06:12:08",1
"23/07/17","06:30",0.0,26.1,91.7,1009.5,86.4,0.2,0.8,112.8,0.06,24.7,24.2,"06:23:52",1
"23/07/17","06:40",0.0,27.0,90.7,1009.3,126.5,0.2,0.8,131.7,0.08,25.4,24.1,"06:30:32",1
"23/07/17","06:50",0.0,27.2,89.1,1009.0,72.3,0.3,0.9,23.9,0.10,25.3,23.8,"06:44:00",1
"23/07/17","07:00",0.0,27.9,86.8,1009.0,95.0,0.6,1.2,28.8,0.12,25.5,24.1,"06:59:36",1
"23/07/17","07:10",0.0,28.9,82.3,1008.6,36.5,0.5,1.1,16.6,0.14,25.6,24.1,"07:07:44",1
"23/07/17","07:20",0.0,29.8,77.5,1009.0,25.5,0.5,1.4,3.4,0.17,25.5,24.2,"07:13:28",1
"23/07/17","07:30",0.0,30.3,73.9,1008.8,89.8,0.6,1.3,125.0,0.19,25.2,24.2,"07:26:56",1
"23/07/17","07:40",0.0,30.5,72.1,1009.3,145.7,0.6,1.6,167.4,0.21,24.9,24.1,"07:38:32",1
"23/07/17","07:50",0.0,31.0,70.9,1010.0,109.8,0.5,1.6,92.9,0.23,25.1,24.1,"07:48:00",1
"23/07/17","08:00",0.0,31.6,69.7,1010.2,103.0,0.5,1.4,95.0,0.26,25.4,24.1,"07:54:24",1
"23/07/17","08:10",0.0,31.9,68.1,1010.2,117.4,0.6,1.3,87.6,0.28,25.3,23.9,"08:07:04",1
"23/07/17","08:20",0.0,32.3,67.7,1010.7,95.4,0.3,1.8,33.7,0.30,25.6,24.1,"08:16:56",1
"23/07/17","08:30",0.0,32.4,65.3,1010.9,85.3,0.8,2.7,16.0,0.32,25.1,24.3,"08:27:44",1
"23/07/17","08:40",0.0,32.4,64.9,1011.2,53.9,1.0,2.9,52.0,0.34,25.0,24.3,"08:38:48",1
"23/07/17","08:50",0.0,32.3,64.5,1010.9,344.2,0.7,1.8,236.8,0.36,24.8,24.2,"08:49:36",1
"23/07/17","09:00",0.0,31.8,65.9,1011.4,224.7,0.8,1.8,202.7,0.38,24.7,24.2,"08:54:24",1
"23/07/17","09:10",0.0,32.5,66.8,1010.9,81.5,0.8,2.1,38.6,0.40,25.6,24.2,"09:02:32",1
"23/07/17","09:20",0.0,33.0,64.6,1011.4,113.8,0.8,2.4,104.9,0.41,25.5,24.5,"09:18:08",1
"23/07/17","09:30",0.0,32.9,64.7,1011.2,141.6,1.3,2.7,123.4,0.43,25.4,24.4,"09:22:32",1
"23/07/17","09:40",0.0,32.5,66.7,1010.9,170.0,1.7,4.0,222.7,0.45,25.5,24.6,"09:34:48",1
"23/07/17","09:50",0.0,32.5,67.4,1010.7,163.6,2.0,3.2,189.5,0.46,25.7,24.7,"09:48:16",1
"23/07/17","10:00",0.0,32.9,67.5,1010.7,141.3,1.5,3.2,138.4,0.48,26.1,24.8,"09:52:08",1
"23/07/17","10:10",0.0,33.3,65.3,1010.9,151.3,1.3,4.2,126.5,0.49,25.9,24.9,"10:06:48",1
"23/07/17","10:20",0.0,33.2,64.1,1010.7,175.0,1.8,3.7,157.1,0.50,25.5,24.8,"10:12:24",1
"23/07/17","10:30",0.0,33.3,64.4,1010.9,193.0,1.7,3.5,209.7,0.51,25.7,24.9,"10:27:52",1
"23/07/17","10:40",0.0,33.7,63.3,1010.4,163.0,1.5,3.4,150.2,0.53,25.8,24.9,"10:31:28",1
"23/07/17","10:50",0.0,34.2,62.8,1010.7,168.2,1.5,3.2,181.2,0.54,26.1,24.9,"10:41:52",1
"23/07/17","11:00",0.0,34.8,63.3,1010.7,207.2,1.5,3.6,226.7,0.56,26.8,25.2,"10:54:00",1
"23/07/17","11:10",0.0,33.4,64.4,1010.2,157.3,1.7,3.1,159.3,0.30,25.8,25.1,"11:07:20",1
"23/07/17","11:20",0.0,34.3,62.1,1010.2,163.7,1.7,3.4,213.7,0.58,26.0,25.0,"11:15:36",1
"23/07/17","11:30",0.0,34.6,58.7,1010.0,185.3,2.0,4.4,223.3,0.58,25.4,25.3,"11:26:32",1
"23/07/17","11:40",0.0,34.9,56.7,1010.2,183.4,1.5,3.5,220.5,0.58,25.1,25.5,"11:36:16",1
"23/07/17","11:50",0.0,35.2,57.7,1010.4,169.7,1.5,5.8,203.6,0.58,25.6,25.5,"11:42:48",1
"23/07/17","12:00",0.0,35.8,54.5,1010.0,179.4,1.5,4.2,228.3,0.59,25.2,25.5,"11:59:52",1
"23/07/17","12:10",0.0,35.9,58.0,1010.2,182.6,2.0,5.2,204.0,0.61,26.4,25.9,"12:04:56",1
"23/07/17","12:20",0.0,35.8,55.7,1010.2,170.8,1.8,4.2,223.4,0.59,25.6,25.9,"12:12:48",1
"23/07/17","12:30",0.0,35.5,55.3,1010.0,192.0,2.0,4.9,229.3,0.59,25.2,25.7,"12:26:08",1
"23/07/17","12:40",0.0,36.0,54.8,1009.7,198.3,1.5,3.7,201.5,0.59,25.5,25.8,"12:34:56",1
"23/07/17","12:50",0.0,36.7,54.9,1009.7,153.1,1.3,4.4,205.9,0.59,26.2,26.2,"12:42:48",1
"23/07/17","13:00",0.0,36.0,53.6,1009.7,172.4,1.1,2.4,231.6,0.34,25.1,25.9,"12:55:12",1
"23/07/17","13:10",0.0,36.3,52.4,1009.7,165.3,1.6,3.9,148.8,0.56,25.0,26.2,"13:00:48",1
"23/07/17","13:20",0.0,36.0,50.9,1009.7,201.4,2.6,5.0,223.1,0.55,24.3,26.2,"13:15:36",1
"23/07/17","13:30",0.0,36.3,49.3,1009.3,211.0,2.0,3.7,207.8,0.53,24.0,26.3,"13:20:16",1
"23/07/17","13:40",0.0,36.4,48.1,1009.5,199.9,2.0,4.4,211.8,0.51,23.7,26.2,"13:36:48",1
"23/07/17","13:50",0.0,36.4,51.1,1009.3,214.2,1.7,4.0,218.3,0.49,24.7,26.2,"13:49:04",1
"23/07/17","14:00",0.0,36.3,52.7,1009.0,204.1,1.7,3.9,235.8,0.50,25.1,26.1,"13:55:20",1
"23/07/17","14:10",0.0,35.9,51.7,1009.3,174.2,2.1,6.0,191.8,0.49,24.4,26.5,"14:09:20",1
"23/07/17","14:20",0.0,36.1,53.0,1008.8,185.8,2.1,4.3,181.4,0.46,25.0,26.6,"14:15:52",1
"23/07/17","14:30",0.0,36.7,52.4,1008.8,206.3,2.1,4.0,195.0,0.45,25.4,26.7,"14:22:56",1
"23/07/17","14:40",0.0,36.1,51.8,1008.8,198.5,2.5,5.1,201.2,0.43,24.7,26.6,"14:36:48",1
"23/07/17","14:50",0.0,36.3,52.1,1008.3,195.7,2.0,4.3,194.4,0.41,24.9,26.4,"14:49:28",1
"23/07/17","15:00",0.0,36.1,53.7,1008.6,201.1,2.3,4.8,220.6,0.40,25.3,26.7,"14:53:04",1
"23/07/17","15:10",0.0,36.2,53.0,1008.3,197.0,2.1,4.0,226.6,0.38,25.1,26.7,"15:05:12",1
"23/07/17","15:20",0.0,36.3,55.2,1008.1,214.7,2.2,4.2,217.3,0.36,25.9,26.7,"15:14:48",1
"23/07/17","15:30",0.0,34.5,55.9,1008.1,188.2,2.0,4.0,210.0,0.10,24.5,26.9,"15:29:12",1
"23/07/17","15:40",0.0,34.7,55.4,1007.8,203.8,1.7,3.5,231.1,0.10,24.5,26.8,"15:39:04",1
"23/07/17","15:50",0.0,35.0,56.3,1007.8,190.6,1.7,3.3,198.9,0.21,25.0,26.8,"15:42:00",1
"23/07/17","16:00",0.0,35.9,54.2,1007.6,248.3,1.5,3.6,235.3,0.27,25.2,26.8,"15:54:24",1
"23/07/17","16:10",0.0,36.7,51.9,1007.8,248.5,0.7,2.4,244.0,0.25,25.2,26.8,"16:03:04",1
"23/07/17","16:20",0.0,36.4,51.1,1007.8,237.1,1.3,4.1,247.3,0.22,24.7,26.8,"16:16:08",1
"23/07/17","16:30",0.0,36.1,53.3,1008.1,224.1,1.5,3.4,203.1,0.21,25.1,27.0,"16:20:48",1
"23/07/17","16:40",0.0,35.7,53.9,1007.8,243.6,1.3,2.6,237.4,0.16,25.0,26.8,"16:34:00",1
"23/07/17","16:50",0.0,35.9,55.2,1007.6,289.2,0.8,1.8,349.0,0.13,25.5,26.7,"16:48:16",1
"23/07/17","17:00",0.0,35.2,57.2,1007.6,306.9,0.8,2.6,347.4,0.07,25.5,27.1,"16:53:28",1
"23/07/17","17:10",0.0,34.7,57.3,1006.9,322.8,1.1,2.4,330.6,0.07,25.1,26.7,"17:04:48",1
"23/07/17","17:20",0.0,35.3,58.2,1007.4,347.9,0.8,2.2,37.4,0.06,25.9,27.0,"17:15:36",1
"23/07/17","17:30",0.0,35.7,56.2,1007.8,46.3,0.6,1.3,1.3,0.06,25.7,26.8,"17:22:08",1
"23/07/17","17:40",0.0,35.7,59.4,1008.1,15.6,0.7,1.8,341.8,0.05,26.6,26.8,"17:37:28",1
"23/07/17","17:50",0.0,34.6,60.3,1007.8,345.0,1.0,2.4,323.6,0.05,25.8,26.8,"17:47:44",1
"23/07/17","18:00",0.0,34.4,59.1,1007.8,319.5,0.6,1.7,319.0,0.04,25.3,27.0,"17:52:24",1
"23/07/17","18:10",0.0,34.2,56.8,1007.6,288.1,0.6,1.4,310.9,0.03,24.4,26.8,"18:06:32",1
"23/07/17","18:20",0.0,34.1,57.4,1007.8,265.2,1.1,2.9,348.1,0.02,24.5,26.9,"18:14:16",1
"23/07/17","18:30",0.0,33.5,60.7,1007.4,291.0,0.7,2.0,336.9,0.01,24.9,26.7,"18:26:16",1
"23/07/17","18:40",0.0,33.1,61.0,1007.6,300.5,1.0,2.7,344.1,0.00,24.6,26.9,"18:33:44",1
"23/07/17","18:50",0.0,32.8,61.9,1007.1,321.2,1.1,2.2,349.3,0.00,24.6,27.0,"18:46:40",1
"23/07/17","19:00",0.0,32.2,65.8,1006.9,348.2,1.5,2.6,341.5,0.00,25.0,26.8,"18:58:16",1
"23/07/17","19:10",0.0,31.4,67.3,1006.2,346.8,1.5,2.9,354.4,0.00,24.6,26.8,"19:08:16",1
"23/07/17","19:20",0.0,30.8,69.1,1006.2,346.0,1.5,3.1,348.3,0.00,24.5,26.7,"19:12:08",1
"23/07/17","19:30",0.0,30.6,70.3,1006.4,342.8,1.5,2.9,333.8,0.00,24.6,26.6,"19:22:16",1
"23/07/17","19:40",0.0,30.4,70.4,1006.0,345.6,1.1,2.4,341.6,0.00,24.4,26.7,"19:34:08",1
"23/07/17","19:50",0.0,30.2,71.4,1006.0,351.2,1.0,2.4,356.1,0.00,24.5,26.7,"19:44:32",1
"23/07/17","20:00",0.0,30.1,70.5,1006.0,349.1,1.3,3.5,358.7,0.00,24.2,26.7,"19:59:36",1
"23/07/17","20:10",0.0,30.2,71.8,1006.0,348.2,1.0,2.0,322.5,0.00,24.6,26.6,"20:00:16",1
"23/07/17","20:20",0.0,29.7,73.6,1006.0,342.6,1.0,2.1,341.3,0.00,24.5,26.5,"20:19:12",1
"23/07/17","20:30",0.0,29.4,75.3,1006.9,349.1,1.1,2.0,356.6,0.00,24.6,26.6,"20:24:56",1
"23/07/17","20:40",0.0,29.3,75.8,1006.9,343.7,1.2,2.7,351.7,0.00,24.6,26.6,"20:33:12",1
"23/07/17","20:50",0.0,29.1,76.3,1006.9,334.4,0.6,1.3,349.5,0.00,24.5,26.6,"20:48:40",1
"23/07/17","21:00",0.0,28.9,76.9,1007.4,351.2,0.8,1.4,344.7,0.00,24.5,26.6,"20:56:00",1
"23/07/17","21:10",0.0,28.8,77.7,1007.4,350.3,0.8,1.7,348.7,0.00,24.6,26.3,"21:02:40",1
"23/07/17","21:20",0.0,28.6,78.0,1007.4,314.3,1.0,2.6,320.4,0.00,24.4,26.2,"21:16:08",1
"23/07/17","21:30",0.0,28.7,77.8,1007.6,304.8,0.8,2.0,330.3,0.00,24.5,26.2,"21:25:44",1
"23/07/17","21:40",0.0,28.5,77.7,1007.8,343.3,1.2,2.4,329.9,0.00,24.3,26.3,"21:38:56",1
"23/07/17","21:50",0.0,28.5,77.2,1008.1,333.2,1.6,2.7,329.5,0.00,24.2,26.4,"21:43:12",1
"23/07/17","22:00",0.0,28.6,77.4,1007.8,334.0,1.0,2.0,331.4,0.00,24.3,26.4,"21:50:16",1
"23/07/17","22:10",0.0,28.4,77.1,1007.8,329.0,1.6,3.5,339.3,0.00,24.0,26.3,"22:01:12",1
"23/07/17","22:20",0.0,28.6,76.4,1008.1,336.9,1.8,3.7,345.7,0.00,24.1,26.1,"22:12:48",1
"23/07/17","22:30",0.0,28.4,76.3,1008.1,334.6,1.3,3.6,348.3,0.00,23.9,26.0,"22:24:00",1
"23/07/17","22:40",0.0,28.0,77.9,1008.6,345.6,1.1,2.8,352.0,0.00,23.8,26.2,"22:35:44",1
"23/07/17","22:50",0.0,27.6,79.1,1008.1,343.5,1.1,2.9,346.7,0.00,23.7,26.1,"22:45:36",1
"23/07/17","23:00",0.0,27.4,80.0,1008.6,332.8,1.3,2.5,318.1,0.00,23.7,26.2,"22:59:36",1
"23/07/17","23:10",0.0,27.3,80.1,1008.6,324.5,1.3,2.5,334.4,0.00,23.6,26.1,"23:09:04",1
"23/07/17","23:20",0.0,27.3,79.8,1008.6,321.3,1.2,2.1,302.6,0.00,23.5,25.9,"23:17:04",1
"23/07/17","23:30",0.0,27.2,80.4,1008.3,327.5,1.0,1.7,351.4,0.00,23.6,26.1,"23:29:44",1
"23/07/17","23:40",0.0,26.9,81.3,1008.8,320.7,1.1,2.0,334.1,0.00,23.5,26.1,"23:30:16",1
"23/07/17","23:50",0.0,26.7,82.0,1008.6,332.1,1.2,2.5,290.1,0.00,23.4,26.1,"23:42:00",1
"23/07/17","24:00",0.0,26.5,82.9,1008.6,339.6,1.2,2.1,334.3,0.00,23.4,26.0,"23:55:12",1
